Location: Marshall
(39.8477°N, 87.1868°W)
Time: 03:49:26
(UTC+00:00)

Envisat - Pass Details

Date: 08 May 2026
Orbit: 761 x 763 km, 98.4° (Epoch: 9 June)

Event Time Altitude Azimuth Distance (km) Brightness Sun altitude
Rises 10:02:25 0° 351° (N) 3,232 6.5 -7.4°
Reaches altitude 10° 10:06:10 10° 323° (NW) 2,300 5.4 -6.8°
Maximum altitude 10:08:07 12° 300° (WNW) 2,141 5.0 -6.5°
Drops below altitude 10° 10:10:04 10° 277° (W) 2,294 5.0 -6.1°
Enters shadow 10:11:55 - 260° (W) 2,677 5.2 -5.8°
